| time (UTC) | temp F | wind direction | speed knots | gust knots | rain 1hr in | rain 24hr in | rain mn in | humidity % | barometer mb |
| 20260506131529 | 51 | 209 | 0.9 | 2.6 | 0.00 | 0.00 | 0.00 | 88 | 1017.7 |
| 20260506130020 | 51 | 195 | 2.6 | 6.1 | 0.00 | 0.00 | 0.00 | 88 | 1017.4 |
| 20260506124515 | 51 | 183 | 2.6 | 6.1 | 0.00 | 0.00 | 0.00 | 87 | 1017.3 |
| 20260506123013 | 51 | 130 | 2.6 | 4.3 | 0.00 | 0.00 | 0.00 | 87 | 1017.2 |
| 20260506121512 | 52 | 159 | 1.7 | 5.2 | 0.00 | 0.00 | 0.00 | 87 | 1017.2 |
| 20260506120014 | 52 | 169 | 0.0 | 2.6 | 0.00 | 0.00 | 0.00 | 86 | 1017.1 |
| 20260506114508 | 52 | 170 | 2.6 | 4.3 | 0.00 | 0.00 | 0.00 | 86 | 1017.0 |
| 20260506113006 | 52 | 152 | 3.5 | 6.1 | 0.00 | 0.00 | 0.00 | 86 | 1016.7 |
| 20260506111502 | 52 | 150 | 2.6 | 5.2 | 0.00 | 0.00 | 0.00 | 86 | 1016.5 |
| 20260506110103 | 52 | 169 | 0.9 | 4.3 | 0.00 | 0.00 | 0.00 | 86 | 1016.4 |
| 20260506104559 | 52 | 211 | 2.6 | 5.2 | 0.00 | 0.00 | 0.00 | 85 | 1016.2 |
| 20260506103059 | 52 | 160 | 3.5 | 7.0 | 0.00 | 0.00 | 0.00 | 85 | 1015.9 |
| 20260506101559 | 52 | 184 | 3.5 | 7.0 | 0.00 | 0.00 | 0.00 | 85 | 1015.8 |
| 20260506100104 | 53 | 159 | 2.6 | 5.2 | 0.00 | 0.00 | 0.00 | 85 | 1015.7 |
| 20260506094549 | 53 | 212 | 2.6 | 6.1 | 0.00 | 0.00 | 0.00 | 84 | 1015.4 |
| 20260506093047 | 53 | 161 | 2.6 | 6.1 | 0.00 | 0.00 | 0.00 | 84 | 1015.3 |
| 20260506091540 | 53 | 144 | 2.6 | 5.2 | 0.00 | 0.00 | 0.00 | 84 | 1015.3 |
| 20260506090038 | 53 | 165 | 4.3 | 8.7 | 0.00 | 0.00 | 0.00 | 83 | 1015.3 |
| 20260506084549 | 54 | 175 | 2.6 | 6.1 | 0.00 | 0.00 | 0.00 | 82 | 1015.2 |
| 20260506083034 | 54 | 127 | 2.6 | 4.3 | 0.00 | 0.00 | 0.00 | 83 | 1015.2 |
| 20260506081539 | 54 | 149 | 2.6 | 4.3 | 0.00 | 0.00 | 0.00 | 83 | 1015.2 |
| 20260506073036 | 54 | 154 | 2.6 | 4.3 | 0.00 | 0.00 | 0.00 | 83 | 1014.8 |
| 20260506071520 | 55 | 142 | 2.6 | 6.1 | 0.00 | 0.00 | 0.00 | 83 | 1014.8 |
| 20260506061504 | 56 | 148 | 2.6 | 7.8 | 0.00 | 0.00 | 0.00 | 80 | 1014.2 |
| 20260506044625 | 59 | 180 | 3.5 | 7.0 | 0.00 | 0.00 | 0.00 | 71 | 1013.8 |
| 20260506043034 | 59 | 160 | 2.6 | 7.8 | 0.00 | 0.00 | 0.00 | 74 | 1013.6 |
| 20260506041529 | 60 | 107 | 1.7 | 6.1 | 0.00 | 0.00 | 0.00 | 72 | 1013.4 |
| 20260506040028 | 60 | 163 | 2.6 | 8.7 | 0.00 | 0.00 | 0.00 | 73 | 1013.3 |
| 20260506034543 | 60 | 178 | 2.6 | 7.0 | 0.00 | 0.00 | 0.00 | 73 | 1013.2 |
| 20260506033016 | 61 | 144 | 3.5 | 10.4 | 0.00 | 0.00 | 0.00 | 70 | 1013.0 |
| 20260506031512 | 62 | 154 | 3.5 | 14.8 | 0.00 | 0.00 | 0.00 | 69 | 1012.9 |
| 20260506030008 | 63 | 202 | 4.3 | 8.7 | 0.00 | 0.00 | 0.00 | 68 | 1012.8 |
| 20260506024502 | 63 | 178 | 5.2 | 12.2 | 0.00 | 0.00 | 0.00 | 67 | 1012.9 |
| 20260506023111 | 64 | 171 | 6.1 | 9.6 | 0.00 | 0.00 | 0.00 | 67 | 1012.8 |
| 20260506021554 | 65 | 157 | 4.3 | 10.4 | 0.00 | 0.00 | 0.00 | 68 | 1013.0 |
| 20260506020049 | 65 | 172 | 5.2 | 12.2 | 0.00 | 0.00 | 0.00 | 66 | 1012.9 |
| 20260506014545 | 65 | 159 | 4.3 | 8.7 | 0.00 | 0.00 | 0.00 | 66 | 1012.9 |
| 20260506013042 | 66 | 128 | 3.5 | 12.2 | 0.00 | 0.00 | 0.00 | 66 | 1012.9 |
| 20260506011537 | 65 | 169 | 4.3 | 13.9 | 0.00 | 0.00 | 0.00 | 67 | 1013.0 |
| 20260506010032 | 64 | 206 | 4.3 | 11.3 | 0.00 | 0.00 | 0.00 | 1 | 1013.0 |
| 20260506004536 | 64 | 207 | 3.5 | 9.6 | 0.00 | 0.00 | 0.00 | 1 | 1013.0 |
| 20260506003037 | 64 | 207 | 2.6 | 8.7 | 0.00 | 0.00 | 0.00 | 1 | 1013.2 |
| 20260506001519 | 65 | 207 | 3.5 | 8.7 | 0.00 | 0.00 | 0.00 | 1 | 1013.2 |
| 20260506000015 | 66 | 206 | 6.1 | 13.0 | 0.00 | 0.00 | 0.00 | 1 | 1013.4 |
| 20260505234515 | 66 | 206 | 5.2 | 13.0 | 0.00 | 0.00 | 0.00 | 1 | 1013.6 |
| 20260505233008 | 65 | 206 | 3.5 | 8.7 | 0.00 | 0.00 | 0.00 | 1 | 1013.7 |
| 20260505231504 | 64 | 207 | 3.5 | 8.7 | 0.00 | 0.00 | 0.00 | 1 | 1013.9 |
| 20260505230057 | 63 | 206 | 4.3 | 7.8 | 0.00 | 0.00 | 0.00 | 1 | 1014.2 |
| 20260505224554 | 61 | 206 | 4.3 | 8.7 | 0.00 | 0.00 | 0.00 | 1 | 1014.3 |
| 20260505223049 | 61 | 207 | 5.2 | 8.7 | 0.00 | 0.00 | 0.00 | 1 | 1014.4 |
| 20260505221544 | 61 | 206 | 4.3 | 9.6 | 0.00 | 0.00 | 0.00 | 1 | 1014.6 |
| 20260505220055 | 61 | 207 | 5.2 | 10.4 | 0.00 | 0.00 | 0.00 | 1 | 1014.6 |
| 20260505214539 | 60 | 207 | 4.3 | 8.7 | 0.00 | 0.00 | 0.00 | 1 | 1014.8 |
| 20260505213031 | 59 | 207 | 3.5 | 9.6 | 0.00 | 0.00 | 0.00 | 1 | 1014.9 |
| 20260505211526 | 58 | 207 | 3.5 | 8.7 | 0.00 | 0.00 | 0.00 | 1 | 1015.0 |
| 20260505210021 | 57 | 207 | 3.5 | 7.8 | 0.00 | 0.00 | 0.00 | 1 | 1015.1 |
| 20260505204516 | 57 | 206 | 4.3 | 9.6 | 0.00 | 0.00 | 0.00 | 1 | 1015.2 |
| 20260505203012 | 57 | 207 | 5.2 | 11.3 | 0.00 | 0.00 | 0.00 | 1 | 1015.2 |
| 20260505201509 | 56 | 207 | 4.3 | 8.7 | 0.00 | 0.00 | 0.00 | 1 | 1015.4 |
| 20260505200003 | 56 | 207 | 6.1 | 9.6 | 0.00 | 0.00 | 0.00 | 1 | 1015.3 |
| 20260505194559 | 56 | 206 | 5.2 | 8.7 | 0.00 | 0.00 | 0.00 | 1 | 1015.4 |
| 20260505193058 | 56 | 207 | 5.2 | 9.6 | 0.00 | 0.00 | 0.00 | 1 | 1015.3 |
| 20260505191557 | 56 | 206 | 6.1 | 12.2 | 0.00 | 0.00 | 0.00 | 1 | 1015.5 |
| 20260505190045 | 56 | 206 | 4.3 | 8.7 | 0.00 | 0.00 | 0.00 | 1 | 1015.5 |
| 20260505184543 | 56 | 206 | 5.2 | 9.6 | 0.00 | 0.00 | 0.00 | 1 | 1015.4 |
| 20260505183037 | 56 | 206 | 5.2 | 10.4 | 0.00 | 0.00 | 0.00 | 1 | 1015.4 |
| 20260505181533 | 56 | 206 | 5.2 | 10.4 | 0.00 | 0.00 | 0.00 | 1 | 1015.3 |
| 20260505180041 | 56 | 206 | 4.3 | 9.6 | 0.00 | 0.00 | 0.00 | 1 | 1015.2 |
| 20260505174532 | 55 | 207 | 6.1 | 11.3 | 0.00 | 0.00 | 0.00 | 1 | 1015.2 |
| 20260505173018 | 55 | 206 | 5.2 | 8.7 | 0.00 | 0.00 | 0.00 | 1 | 1015.1 |
| 20260505171516 | 55 | 206 | 4.3 | 10.4 | 0.00 | 0.00 | 0.00 | 1 | 1015.0 |
| 20260505170019 | 55 | 207 | 4.3 | 8.7 | 0.00 | 0.00 | 0.00 | 1 | 1015.0 |
| 20260505164507 | 55 | 207 | 5.2 | 9.6 | 0.00 | 0.00 | 0.00 | 1 | 1014.9 |
| 20260505163002 | 55 | 206 | 4.3 | 9.6 | 0.00 | 0.00 | 0.00 | 1 | 1014.9 |
| 20260505161604 | 55 | 207 | 5.2 | 9.6 | 0.00 | 0.00 | 0.00 | 1 | 1014.8 |
| 20260505153056 | 56 | 134 | 5.2 | 9.6 | 0.00 | 0.00 | 0.00 | 80 | 1014.4 |
| 20260505151550 | 56 | 166 | 2.6 | 8.7 | 0.00 | 0.00 | 0.00 | 81 | 1014.4 |